Weather History for Richmond, VA

Change the Weather History Date:

Thursday, July 25, 2013

  Actual Average Record
Temperature  
Mean Temperature 75 °F 79 °F  
Max Temperature 82 °F 89 °F 105 °F (2010)
Min Temperature 67 °F 69 °F 56 °F (1932)
Degree Days  
Heating Degree Days 0 0  
Month to date heating degree days 0 0  
Since 1 June heating degree days 0 7  
Since 1 July heating degree days 0 0  
Cooling Degree Days 10 14  
Month to date cooling degree days 418 359  
Year to date cooling degree days 989 835  
Since 1 June cooling degree days 776 674  
Growing Degree Days 24 (Base 50)    
Moisture  
Dew Point 62 °F    
Average Humidity 66    
Maximum Humidity 81    
Minimum Humidity 51    
Precipitation  
Precipitation 0.04 in 0.14 in 2.65 in (1965)
Month to date precipitation 4.94 3.58  
Year to date precipitation 30.32 24.40  
Snow  
Snow 0.00 in 0.00 in 0.00 in (2002)
Month to date snowfall 0.0 0.0  
Since 1 July snowfall 0.0 0.0  
Snow Depth 0.00 in    
Sea Level Pressure  
Sea Level Pressure 29.95 in    
Wind  
Wind Speed 9 mph (North)    
Max Wind Speed 16 mph    
Max Gust Speed 21 mph    
Visibility 10 miles    
Events Rain , Thunderstorm    
T = Trace of Precipitation, MM = Missing Value Source: NWS Daily Summary

Daily Weather History Graph

Daily Weather History Graph

Search for Another Location

Airport:

Trip Planner

Search our weather history database for the weather conditions in past years. The results will help you decide how hot, cold, wet, or windy it might be!

Date:

Astronomy

Jul. 25, 2013 Rise Set
Actual Time 6:07 AM EDT 8:23 PM EDT
Civil Twilight 5:38 AM EDT 8:52 PM EDT
Nautical Twilight 5:02 AM EDT 9:28 PM EDT
Astronomical Twilight 4:22 AM EDT 10:08 PM EDT
Moon 10:08 PM EDT (7/25) 9:29 AM EDT (7/25)
Length of Visible Light 15h 14m
Length of Day
14h 15m
Waning Gibbous, 88% of the Moon is Illuminated
Jul 25
Waning Gibbous
Jul 29
Last Quarter
Aug 6
New
Aug 14
First Quarter
Aug 20
Full

Hourly Weather History & Observations

Time (EDT) Temp. Heat Index Dew Point Humidity Pressure Visibility Wind Dir Wind Speed Gust Speed Precip Events Conditions
12:05 AM 77.0 °F - 66.2 °F 69% 29.89 in 10.0 mi North 5.8 mph - N/A Thunderstorm Thunderstorm
12:42 AM 77.0 °F - 64.4 °F 65% 29.88 in 10.0 mi North 6.9 mph - N/A   Overcast
12:54 AM 75.9 °F - 64.9 °F 69% 29.89 in 10.0 mi North 5.8 mph - N/A   Overcast
1:54 AM 75.0 °F - 63.0 °F 66% 29.87 in 10.0 mi NNE 6.9 mph - 0.00 in   Overcast
2:54 AM 75.0 °F - 64.0 °F 69% 29.88 in 10.0 mi North 8.1 mph - N/A   Overcast
3:54 AM 73.0 °F - 64.0 °F 73% 29.87 in 10.0 mi North 10.4 mph - N/A   Mostly Cloudy
4:54 AM 73.0 °F - 63.0 °F 71% 29.88 in 10.0 mi North 12.7 mph - N/A   Mostly Cloudy
5:54 AM 72.0 °F - 62.1 °F 71% 29.90 in 10.0 mi North 11.5 mph - 0.00 in Rain Light Rain
6:54 AM 69.1 °F - 63.0 °F 81% 29.93 in 10.0 mi North 9.2 mph - 0.01 in Rain Light Rain
7:54 AM 66.9 °F - 62.1 °F 84% 29.93 in 10.0 mi North 10.4 mph - 0.03 in   Overcast
8:54 AM 66.9 °F - 61.0 °F 81% 29.96 in 10.0 mi North 11.5 mph - 0.00 in   Overcast
9:54 AM 69.1 °F - 60.1 °F 73% 29.97 in 10.0 mi North 10.4 mph - N/A   Mostly Cloudy
10:54 AM 73.0 °F - 61.0 °F 66% 29.97 in 10.0 mi NNE 12.7 mph 17.3 mph N/A   Scattered Clouds
11:33 AM 75.2 °F - 62.6 °F 65% 29.97 in 10.0 mi North 11.5 mph - N/A   Scattered Clouds
11:54 AM 75.9 °F - 62.1 °F 62% 29.99 in 10.0 mi North 8.1 mph - N/A   Scattered Clouds
12:54 PM 77.0 °F - 63.0 °F 62% 29.99 in 10.0 mi North 12.7 mph - N/A   Mostly Cloudy
1:54 PM 78.1 °F - 64.0 °F 62% 29.99 in 10.0 mi North 13.8 mph - N/A   Overcast
2:54 PM 82.0 °F 83.4 °F 64.0 °F 54% 29.97 in 10.0 mi North 11.5 mph - N/A   Overcast
3:54 PM 78.1 °F - 62.1 °F 58% 29.98 in 10.0 mi North 11.5 mph - N/A   Mostly Cloudy
4:54 PM 80.1 °F 81.1 °F 61.0 °F 52% 29.98 in 10.0 mi North 12.7 mph - N/A   Mostly Cloudy
5:54 PM 80.1 °F 81.1 °F 61.0 °F 52% 29.98 in 10.0 mi NNE 11.5 mph 17.3 mph N/A   Mostly Cloudy
6:54 PM 78.1 °F - 59.0 °F 52% 29.99 in 10.0 mi North 8.1 mph - N/A   Mostly Cloudy
7:54 PM 75.9 °F - 60.1 °F 58% 30.01 in 10.0 mi North 4.6 mph - N/A   Mostly Cloudy
8:54 PM 73.9 °F - 60.1 °F 62% 30.01 in 10.0 mi North 6.9 mph - 0.01 in   Mostly Cloudy
9:54 PM 72.0 °F - 61.0 °F 68% 30.02 in 10.0 mi North 4.6 mph - N/A   Scattered Clouds
10:54 PM 70.0 °F - 62.1 °F 76% 30.03 in 10.0 mi North 4.6 mph - N/A   Partly Cloudy
11:54 PM 69.1 °F - 62.1 °F 78% 30.05 in 10.0 mi Calm Calm - N/A   Clear